Mazatlan - G. Buelna, Mexico

1:09 PM MDT on October 01, 2016 (GMT -0600)
Gen Rafael Buelna International

Weather History for MMMZ - February, 2014

Change the Weather History Date:

Tuesday, February 4, 2014

  Actual Average Record
Temperature  
Mean Temperature 66 °F -  
Max Temperature 78 °F 78 °F 86 °F (2001)
Min Temperature 53 °F 52 °F 35 °F (2011)
Growing Degree Days 16 (Base 50)    
Moisture  
Dew Point 51 °F    
Average Humidity 61    
Maximum Humidity 77    
Minimum Humidity 41    
Precipitation  
Precipitation 0.00 in - - ()
Sea Level Pressure  
Sea Level Pressure 29.90 in    
Wind  
Wind Speed 8 mph ()    
Max Wind Speed 15 mph    
Max Gust Speed -    
Visibility 11.5 miles    
Events      
Averages and records for this station are not official NWS values.
T = Trace of Precipitation, MM = Missing Value Source: Averaged Metar Reports

Daily Weather History Graph

Daily Weather History Graph

Search for Another Location

Airport or City:

Trip Planner

Search our weather history database for the weather conditions in past years. The results will help you decide how hot, cold, wet, or windy it might be!

Date:

Astronomy

Feb. 04, 2014 Rise Set
Actual Time 6:43 AM MST 5:54 PM MST
Civil Twilight 6:20 AM MST 6:18 PM MST
Nautical Twilight 5:53 AM MST 6:44 PM MST
Astronomical Twilight 5:26 AM MST 7:11 PM MST
Moon 10:05 AM MST (2/4) 11:05 PM MST (2/4)
Length of Visible Light 11h 57m
Length of Day
11h 11m
Waxing Crescent, 29% of the Moon is Illuminated
Feb 4
Waxing Crescent
Feb 6
First Quarter
Feb 14
Full
Feb 22
Last Quarter
Mar 1
New

Hourly Weather History & Observations

Time (MST) Temp. Dew Point Humidity Pressure Visibility Wind Dir Wind Speed Gust Speed Precip Events Conditions
12:45 AM 60.8 °F 51.8 °F 72% 29.91 in 10.0 mi North 8.1 mph - N/A   Scattered Clouds
1:46 AM 59.0 °F 50.0 °F 72% 29.92 in 10.0 mi North 8.1 mph - N/A   Partly Cloudy
2:44 AM 57.2 °F 50.0 °F 77% 29.91 in 10.0 mi NNE 6.9 mph - N/A   Partly Cloudy
3:41 AM 55.4 °F 48.2 °F 77% 29.91 in 10.0 mi North 8.1 mph - N/A   Scattered Clouds
4:43 AM 55.4 °F 48.2 °F 77% 29.92 in 10.0 mi NNE 8.1 mph - N/A   Clear
5:42 AM 55.4 °F 48.2 °F 77% 29.91 in 10.0 mi NNE 8.1 mph - N/A   Clear
6:41 AM 53.6 °F 46.4 °F 77% 29.92 in 12.0 mi ENE 6.9 mph - N/A   Scattered Clouds
7:46 AM 57.2 °F 50.0 °F 77% 29.92 in 10.0 mi North 8.1 mph - N/A   Mostly Cloudy
8:51 AM 66.2 °F 53.6 °F 64% 29.94 in 10.0 mi NE 6.9 mph - N/A   Mostly Cloudy
9:44 AM 69.8 °F 53.6 °F 56% 29.95 in 10.0 mi NW 5.8 mph - N/A   Mostly Cloudy
10:46 AM 73.4 °F 53.6 °F 50% 29.94 in 10.0 mi SSW 9.2 mph - N/A   Mostly Cloudy
11:52 AM 75.2 °F 51.8 °F 44% 29.92 in 15.0 mi West 9.2 mph - N/A   Mostly Cloudy
12:49 PM 77.0 °F 51.8 °F 41% 29.89 in 15.0 mi WSW 10.4 mph - N/A   Mostly Cloudy
1:43 PM 78.8 °F 53.6 °F 42% 29.86 in 15.0 mi SSW 9.2 mph - N/A   Mostly Cloudy
2:45 PM 77.0 °F 53.6 °F 44% 29.84 in 15.0 mi SSW 11.5 mph - N/A   Scattered Clouds
3:43 PM 75.2 °F 53.6 °F 47% 29.84 in 15.0 mi WSW 13.8 mph - N/A   Mostly Cloudy
4:47 PM 73.4 °F 53.6 °F 50% 29.85 in 15.0 mi West 15.0 mph - N/A   Mostly Cloudy
5:46 PM 71.6 °F 53.6 °F 53% 29.86 in 12.0 mi West 11.5 mph - N/A   Scattered Clouds
6:50 PM 68.0 °F 51.8 °F 56% 29.88 in 10.0 mi West 9.2 mph - N/A   Scattered Clouds
7:42 PM 62.6 °F 50.0 °F 63% 29.89 in 10.0 mi NW 8.1 mph - N/A   Scattered Clouds
8:44 PM 62.6 °F 48.2 °F 59% 29.91 in 10.0 mi WNW 6.9 mph - N/A   Clear
9:51 PM 60.8 °F 48.2 °F 63% 29.93 in 10.0 mi NW 6.9 mph - N/A   Clear
10:45 PM 59.0 °F 46.4 °F 63% 29.92 in 10.0 mi NNE 8.1 mph - N/A   Clear